Location: Banksville Park
(38.5557°N, 75.1182°W)
Time: 22:17:57
(UTC+00:00)

Sich 1 Rocket - Pass Details

Date: 19 September 2020
Orbit: 617 x 652 km, 82.5° (Epoch: 20 October)

Event Time Altitude Azimuth Distance (km) Brightness Sun altitude
Rises 00:10:08 0° 186° (S) 2,904 6.9 -13.8°
Reaches altitude 10° 00:12:21 10° 186° (S) 2,007 6.1 -14.3°
Maximum altitude 00:16:48 89° 275° (W) 643 3.6 -15.1°
Drops below altitude 10° 00:21:21 10° 7° (N) 2,044 6.3 -16.0°
Sets 00:23:37 0° 8° (N) 2,964 7.2 -16.4°
